Wind_Speed
15 16 17 18 19 20 21 23 26 26 27 29 33 31 31 34 34 35 35 34 36 37 37 38 42 41 45 45 43 46 55 48 50 40 39 31 32 37 38 33 29 24 21
16 16 17 19 20 21 23 24 26 27 28 29 31 33 34 39 40 40 38 35 36 39 41 41 41 40 43 42 42 48 44 42 46 40 39 40 40 41 36 31 26 29 26
15 16 17 19 20 21 23 25 25 27 29 30 31 34 37 38 43 38 36 43 44 44 44 42 43 38 42 42 43 44 51 52 47 45 39 42 38 38 34 30 30 27 22
14 15 16 18 20 21 23 24 26 27 27 30 33 35 34 38 40 42 48 51 54 52 49 45 47 47 43 42 43 45 47 51 48 44 37 41 41 40 34 36 33 31 30
15 15 16 17 19 21 23 23 26 27 27 28 31 32 36 35 38 47 51 55 59 57 53 49 45 47 47 43 43 46 46 48 48 45 40 38 39 36 39 34 28 31 24
14 15 16 17 19 21 22 24 25 26 26 30 30 32 34 35 38 45 47 54 58 53 50 46 47 39 43 43 50 49 45 49 47 49 46 45 43 44 40 36 32 26 22
14 15 16 17 19 21 21 22 25 26 27 28 31 31 33 36 43 46 49 52 54 48 45 46 43 40 37 36 39 43 47 50 51 52 51 48 44 48 45 39 33 30 25
13 14 16 17 18 21 24 25 25 24 26 28 30 33 34 36 43 46 50 49 51 45 39 40 37 38 32 32 31 36 39 48 54 46 44 47 48 48 43 38 35 28 18
15 16 17 17 19 20 22 24 22 24 25 27 29 33 35 36 42 44 49 49 51 44 39 33 29 28 27 27 35 34 36 35 47 48 37 26 40 35 38 34 29 23 19
15 16 17 17 18 19 22 24 24 23 24 26 28 32 32 35 39 42 43 47 47 51 44 33 26 25 23 25 23 28 37 35 34 32 33 24 27 34 34 26 26 20 16
15 16 17 17 17 17 22 19 24 25 24 26 27 28 30 33 35 40 39 43 45 45 50 48 35 10 18 18 27 27 25 31 29 33 35 38 34 30 31 27 26 20 16
16 16 17 18 17 17 21 22 22 23 24 27 28 32 32 36 38 38 38 37 40 42 42 41 35 32 30 25 25 32 36 35 37 34 28 28 30 21 16 17 18 18 18
17 18 18 19 18 18 19 20 22 22 24 30 33 36 36 38 39 39 38 34 35 35 37 36 25 31 30 31 28 27 28 28 27 25 23 20 19 18 12 11 9 13 13
18 18 18 19 20 19 20 20 20 22 23 28 29 32 33 38 38 38 36 37 34 31 30 32 31 34 30 21 22 24 25 22 22 21 22 19 16 14 12 7 4 4 4
17 17 19 18 19 20 20 21 21 22 25 24 23 26 28 35 34 30 27 31 33 31 25 24 26 29 27 27 24 24 22 21 19 17 14 13 10 10 8 7 7 5 7
15 16 20 20 20 20 22 22 23 25 27 28 27 31 33 35 29 29 24 25 31 25 26 25 24 23 24 23 20 19 19 18 15 12 11 10 9 7 8 7 5 7 6
15 15 18 20 20 21 23 23 26 25 24 24 26 28 30 37 27 31 25 23 25 24 23 22 21 23 18 17 17 15 14 11 9 7 6 6 6 5 6 4 3 3 3
15 16 15 19 19 21 22 24 23 25 25 24 23 24 24 33 24 26 27 22 21 22 22 21 19 18 17 15 11 13 11 9 7 5 2 3 4 4 1 1 1 2 1
14 15 14 17 18 21 21 23 23 24 24 23 23 22 24 33 23 23 23 21 21 21 21 20 20 18 16 14 14 12 8 5 4 3 4 2 1 3 2 1 1 3 2
15 16 15 14 17 21 22 23 23 23 23 23 24 24 23 29 22 21 21 20 20 20 20 20 18 16 15 13 12 11 8 5 5 6 5 3 3 3 3 3 1 1 1
14 12 16 13 16 19 20 23 22 23 23 23 23 22 28 24 22 21 20 20 20 20 17 20 23 18 15 14 12 11 9 4 6 7 7 5 4 5 3 2 3 2 3
13 12 18 14 15 18 20 20 22 22 22 23 23 22 24 21 21 20 20 19 18 18 19 18 21 17 16 15 14 12 9 8 6 5 5 5 5 3 3 3 3 3 5
19 17 5 9 13 17 20 20 20 20 21 21 21 21 21 21 21 20 20 19 19 18 18 18 18 22 18 17 14 11 10 10 8 8 8 7 5 4 4 4 4 4 2
17 4 6 9 13 16 18 19 19 19 20 20 20 20 20 20 20 20 20 20 20 20 19 17 16 15 21 20 17 14 11 13 14 11 9 9 7 6 8 8 5 5 5
3 3 6 11 13 15 17 17 18 19 19 20 19 20 20 20 19 19 19 19 20 22 21 20 18 19 20 22 19 13 16 17 16 14 12 10 12 11 10 7 8 7 7
2 5 10 12 12 12 15 15 17 18 19 19 19 19 20 19 20 21 20 20 23 23 22 21 21 21 24 26 21 21 20 19 15 14 12 12 13 12 10 10 8 7 7
Wind_Direction
357 357 354 353 354 352 352 349 348 348 347 346 345 342 339 339 334 327 319 309 301 296 289 281 276 272 261 258 260 249 245 244 251 255 250 222 207 212 216 221 215 239 251
354 354 350 351 351 352 348 347 344 343 345 345 344 344 342 343 340 335 328 318 307 297 295 289 277 272 264 266 263 245 247 244 248 245 232 222 220 217 220 218 224 236 240
351 350 348 350 347 350 344 344 343 339 340 342 343 343 344 342 339 338 325 316 314 303 292 284 281 271 264 262 260 253 244 245 251 250 221 218 218 214 211 219 215 224 210
349 348 345 346 343 344 340 340 342 340 337 336 338 339 344 336 342 333 331 326 320 312 303 289 276 271 263 255 256 250 245 243 250 243 215 216 210 207 213 209 208 212 216
348 345 343 341 339 339 339 341 338 339 340 334 336 337 343 337 337 340 333 327 323 317 311 303 289 271 265 250 252 246 239 244 240 228 205 198 202 201 197 198 204 209 214
346 344 341 340 338 335 336 338 338 339 338 337 336 336 339 343 339 343 338 331 329 320 314 304 296 283 268 262 239 244 244 237 233 219 201 199 196 194 193 195 200 202 203
346 343 341 340 338 333 339 334 338 340 340 337 335 337 335 339 346 349 344 338 333 323 315 306 293 274 264 257 250 250 237 238 237 228 206 200 195 202 210 202 201 202 202
347 345 343 341 339 334 336 339 340 340 340 338 338 340 339 339 346 351 350 346 342 332 326 312 288 274 257 252 246 246 240 236 223 217 214 211 211 217 209 206 196 203 190
350 347 344 341 339 333 336 336 336 344 340 339 337 341 341 343 350 353 356 353 355 353 344 322 285 270 270 253 244 239 224 218 211 210 202 201 199 206 197 186 181 179 190
348 344 341 339 338 332 335 338 337 342 339 339 339 338 341 344 352 355 1 359 359 7 13 354 301 268 253 260 228 219 203 209 208 194 179 162 170 176 169 172 172 173 181
347 345 343 340 338 333 334 336 337 339 341 339 341 342 344 350 352 359 2 6 7 9 21 27 31 349 247 234 223 214 198 196 177 167 165 164 170 165 164 159 165 169 173
347 345 344 341 338 336 332 334 341 341 337 340 341 344 352 355 357 1 5 8 12 18 16 32 48 61 89 138 157 152 154 157 152 157 151 150 158 173 181 177 176 169 176
348 344 340 341 337 340 338 336 336 339 338 342 343 345 346 354 357 359 4 6 13 19 23 23 27 56 75 87 102 108 116 126 135 130 132 129 151 153 148 151 177 198 216
346 344 342 339 339 340 341 337 338 339 340 342 343 346 343 346 354 356 0 6 8 11 20 30 35 41 47 54 76 90 100 110 117 127 134 135 150 161 144 149 117 126 127
342 340 343 339 338 339 338 336 335 334 335 341 343 349 346 345 350 357 5 8 7 8 8 19 28 33 39 48 52 58 65 75 88 106 107 113 120 125 123 129 144 168 179
333 336 343 342 337 337 338 337 337 338 339 342 345 347 348 347 352 5 11 8 4 7 7 13 16 25 29 31 43 52 54 63 69 78 95 102 111 112 108 136 155 191 180
316 324 334 340 337 336 338 337 336 338 340 340 344 344 340 342 359 5 12 12 360 4 10 9 11 10 14 31 33 34 35 49 60 72 94 113 114 100 112 146 189 164 188
300 310 320 332 335 334 336 335 334 336 337 338 340 339 333 340 1 359 2 6 357 2 5 1 2 2 2 7 17 31 30 34 36 37 43 74 75 86 87 168 173 183 149
284 297 299 326 329 331 332 333 333 332 333 334 336 337 333 343 360 354 356 358 356 357 357 357 355 355 355 2 2 358 357 1 2 16 32 38 359 354 249 97 108 227 198
277 290 292 314 325 329 330 331 332 332 333 334 336 335 336 343 351 350 352 352 354 351 350 353 352 349 351 354 348 344 338 346 12 357 351 354 348 299 281 265 264 168 283
271 278 285 307 321 326 327 330 329 330 330 332 333 334 336 346 342 345 348 349 349 350 351 348 349 350 348 349 345 343 335 311 344 336 338 321 301 292 284 279 237 248 231
270 263 283 300 314 322 325 325 327 328 328 329 330 332 337 340 340 341 343 346 345 347 346 345 344 347 345 341 338 340 345 329 298 302 281 262 265 266 267 273 266 275 264
255 272 302 299 319 324 327 327 329 328 328 330 331 332 336 337 337 338 339 341 342 343 344 342 338 340 340 338 331 322 319 316 303 278 269 253 257 269 280 274 258 263 275
296 297 299 321 321 327 328 330 329 331 331 331 332 333 335 335 336 336 336 337 339 338 339 340 338 337 333 336 331 322 306 285 288 287 271 256 257 269 249 241 241 255 255
14 338 329 327 330 332 330 331 332 331 332 331 333 333 333 333 336 334 335 336 334 335 337 336 335 333 329 323 324 311 294 292 290 282 273 252 249 248 252 252 258 236 241
353 356 338 334 336 337 334 335 335 334 330 333 332 332 332 336 332 332 335 332 333 334 332 333 331 330 322 329 325 316 317 313 306 297 282 256 245 241 243 250 249 249 250
Height
1547 1545 1543 1539 1535 1532 1529 1525 1520 1514 1509 1502 1496 1491 1486 1480 1475 1469 1463 1458 1453 1449 1447 1444 1441 1442 1440 1440 1440 1442 1441 1443 1444 1448 1451 1450 1454 1454 1457 1462 1464 1467 1470
1546 1544 1542 1538 1535 1531 1528 1523 1519 1513 1507 1501 1494 1488 1482 1476 1470 1464 1457 1451 1446 1439 1435 1431 1428 1430 1427 1428 1428 1427 1430 1431 1435 1436 1438 1440 1444 1445 1451 1455 1458 1461 1464
1547 1544 1541 1537 1534 1531 1527 1522 1518 1512 1506 1499 1492 1485 1479 1472 1465 1459 1453 1445 1437 1430 1425 1420 1416 1417 1414 1416 1416 1415 1418 1421 1423 1425 1425 1427 1435 1438 1444 1448 1451 1455 1460
1547 1544 1541 1537 1534 1530 1527 1522 1516 1511 1506 1500 1491 1484 1476 1470 1462 1455 1445 1435 1425 1416 1410 1406 1402 1401 1400 1402 1403 1404 1406 1408 1410 1413 1415 1418 1426 1430 1435 1440 1445 1450 1452
1545 1543 1540 1537 1534 1529 1525 1520 1515 1509 1504 1498 1491 1483 1474 1467 1460 1449 1438 1425 1413 1400 1394 1388 1384 1383 1384 1387 1390 1390 1393 1396 1398 1401 1407 1408 1415 1421 1425 1431 1437 1442 1446
1545 1542 1539 1536 1533 1528 1522 1518 1512 1507 1502 1496 1489 1481 1473 1464 1456 1446 1434 1419 1404 1391 1380 1374 1369 1367 1366 1368 1371 1375 1380 1382 1385 1386 1392 1397 1402 1409 1416 1421 1426 1434 1439
1544 1541 1538 1535 1531 1525 1519 1515 1510 1504 1499 1494 1486 1478 1471 1462 1451 1438 1427 1413 1396 1383 1372 1361 1354 1352 1352 1354 1358 1360 1365 1369 1374 1376 1380 1385 1393 1398 1405 1413 1419 1425 1431
1543 1540 1537 1533 1530 1525 1518 1511 1506 1503 1498 1491 1483 1475 1467 1459 1448 1434 1420 1406 1390 1377 1364 1352 1343 1341 1342 1344 1349 1351 1355 1360 1365 1370 1377 1374 1381 1387 1398 1406 1412 1421 1430
1542 1538 1535 1532 1528 1524 1518 1512 1506 1501 1497 1490 1482 1473 1465 1457 1446 1433 1418 1402 1390 1372 1357 1344 1335 1332 1333 1335 1339 1343 1347 1350 1355 1361 1371 1375 1381 1384 1396 1402 1408 1417 1425
1540 1537 1533 1530 1526 1522 1516 1510 1505 1501 1496 1489 1482 1474 1465 1456 1445 1434 1421 1408 1391 1376 1356 1338 1329 1325 1327 1330 1332 1336 1336 1344 1347 1357 1361 1378 1388 1386 1395 1402 1406 1412 1420
1539 1535 1532 1528 1524 1520 1515 1510 1504 1498 1494 1487 1480 1473 1464 1455 1445 1436 1424 1410 1396 1381 1363 1348 1336 1328 1324 1326 1327 1333 1334 1341 1349 1356 1361 1361 1374 1390 1395 1396 1404 1409 1413
1538 1534 1531 1526 1523 1519 1514 1509 1504 1498 1493 1485 1478 1470 1462 1453 1444 1435 1424 1414 1402 1389 1377 1366 1355 1345 1335 1330 1330 1332 1334 1344 1349 1360 1367 1371 1379 1389 1396 1399 1402 1406 1409
1537 1533 1529 1525 1522 1517 1513 1508 1502 1497 1491 1483 1476 1468 1460 1452 1443 1434 1424 1416 1406 1398 1390 1382 1372 1361 1351 1346 1345 1346 1350 1354 1357 1366 1374 1376 1385 1392 1393 1399 1400 1399 1407
1536 1532 1528 1524 1520 1516 1511 1507 1502 1496 1491 1484 1477 1470 1462 1453 1444 1435 1426 1419 1411 1405 1399 1392 1384 1378 1371 1365 1362 1361 1362 1366 1369 1376 1380 1384 1388 1393 1393 1396 1396 1403 1408
1535 1532 1528 1523 1519 1515 1510 1505 1501 1496 1490 1485 1479 1472 1464 1455 1447 1441 1433 1425 1419 1412 1406 1400 1395 1389 1384 1379 1379 1377 1375 1376 1376 1381 1386 1388 1392 1396 1393 1395 1404 1408 1410
1534 1531 1527 1522 1518 1513 1508 1503 1499 1493 1487 1481 1475 1470 1465 1458 1450 1443 1436 1430 1424 1418 1412 1407 1402 1398 1393 1390 1388 1387 1387 1384 1385 1388 1390 1393 1396 1397 1396 1402 1407 1412 1411
1532 1529 1526 1521 1517 1512 1507 1502 1496 1492 1486 1481 1475 1469 1464 1459 1452 1445 1439 1433 1428 1422 1417 1413 1409 1405 1401 1398 1396 1395 1392 1391 1391 1393 1396 1398 1399 1396 1401 1405 1408 1407 1408
1528 1526 1523 1520 1515 1511 1506 1501 1496 1491 1485 1481 1476 1471 1464 1459 1452 1446 1441 1436 1431 1425 1421 1416 1412 1409 1406 1403 1401 1399 1397 1396 1398 1402 1403 1400 1399 1401 1403 1405 1406 1406 1405
1524 1522 1520 1517 1513 1509 1504 1500 1495 1490 1485 1480 1475 1472 1465 1458 1452 1447 1443 1439 1434 1429 1424 1419 1414 1411 1408 1406 1404 1403 1402 1403 1404 1402 1401 1401 1401 1402 1404 1404 1405 1405 1404
1520 1518 1515 1513 1510 1506 1502 1498 1493 1489 1485 1479 1474 1469 1464 1458 1453 1449 1445 1440 1437 1432 1427 1422 1418 1414 1411 1409 1407 1405 1403 1403 1403 1403 1402 1401 1402 1405 1405 1404 1403 1402 1404
1515 1514 1511 1511 1508 1504 1500 1496 1491 1487 1482 1478 1474 1468 1463 1458 1454 1450 1446 1442 1438 1434 1429 1424 1419 1415 1412 1409 1408 1407 1405 1403 1403 1403 1402 1402 1405 1406 1404 1402 1403 1403 1406
1511 1509 1507 1507 1505 1502 1498 1494 1489 1485 1481 1476 1472 1468 1462 1458 1454 1450 1447 1443 1440 1436 1432 1426 1421 1418 1414 1411 1408 1407 1406 1406 1405 1404 1405 1407 1406 1404 1404 1403 1403 1403 1404
1504 1504 1504 1504 1503 1500 1496 1492 1488 1484 1479 1475 1471 1466 1462 1458 1453 1449 1446 1443 1439 1436 1432 1429 1422 1418 1415 1412 1410 1408 1406 1405 1404 1404 1403 1403 1402 1401 1400 1401 1402 1403 1402
1502 1502 1503 1502 1500 1497 1494 1490 1486 1482 1478 1474 1470 1466 1462 1458 1454 1449 1445 1441 1437 1434 1431 1428 1425 1421 1416 1413 1409 1406 1405 1403 1402 1401 1399 1399 1399 1400 1400 1401 1401 1401 1401
1500 1501 1501 1500 1498 1495 1492 1489 1485 1481 1477 1473 1469 1465 1460 1456 1453 1449 1445 1441 1436 1431 1427 1425 1422 1418 1414 1411 1407 1404 1401 1399 1398 1396 1396 1396 1397 1397 1398 1398 1398 1398 1398
1500 1501 1501 1499 1496 1493 1491 1487 1484 1480 1476 1472 1468 1464 1460 1455 1451 1446 1443 1439 1434 1430 1426 1422 1419 1415 1410 1405 1401 1398 1395 1393 1391 1390 1389 1390 1391 1392 1394 1395 1396 1396 1397